Dewpoint
64 64 64 64 66 67 66 66 65 65 65 66 66 66 66 66 66 66 66 66 65 65 65 65 65 65 63 62 61 61 61 60 59 59 58 57 55 54 58 55 57 57 56 55 53 52 50 48 49 53 54 54 56 55 59 57 57 57 57 56 56 55 55
64 65 65 65 67 67 65 64 64 63 64 66 66 66 66 66 66 66 66 66 65 65 66 64 64 64 63 62 61 60 60 60 60 59 58 57 55 54 53 53 54 54 54 54 54 53 50 47 48 49 50 53 53 55 57 56 56 56 56 56 57 56 56
65 65 65 65 66 65 64 63 63 62 63 64 65 65 66 66 66 66 66 65 65 66 66 65 64 63 63 62 60 60 61 60 60 58 58 57 56 55 54 53 53 52 52 52 52 51 51 50 48 48 49 49 50 53 55 53 54 54 54 55 55 55 54
64 64 64 65 66 64 63 63 62 62 62 63 64 65 65 65 65 66 65 65 65 66 65 65 64 64 63 62 61 60 59 59 59 58 57 56 56 56 55 54 53 52 51 50 50 50 49 48 48 49 49 51 50 52 53 54 53 53 53 54 54 54 54
64 65 64 65 65 64 63 63 63 62 62 63 63 64 65 65 65 65 65 65 65 65 65 64 64 64 62 61 60 60 60 59 58 57 56 55 55 56 55 54 53 54 53 52 52 52 51 49 49 49 49 50 51 51 52 52 52 52 52 52 53 53 53
64 65 64 65 66 64 63 63 62 62 62 62 63 64 64 65 66 65 65 65 64 64 64 64 64 64 61 60 60 59 58 57 56 56 55 54 55 55 55 54 53 53 53 52 53 52 51 51 50 47 48 50 49 50 51 51 50 51 52 51 52 52 53
64 65 64 65 66 64 63 63 63 62 62 62 63 64 65 65 65 65 65 65 64 64 64 64 63 63 61 59 58 58 57 57 57 56 56 55 55 55 54 53 53 53 52 52 52 52 51 50 48 47 47 48 49 50 51 49 49 49 48 50 52 52 52
64 65 65 65 65 63 63 63 63 63 63 63 63 64 65 65 65 65 65 65 64 64 64 64 63 62 61 59 58 57 58 58 57 56 55 55 55 54 53 53 52 52 52 51 52 51 51 50 49 48 47 47 46 48 48 48 47 47 46 47 48 49 51
64 64 65 65 65 64 63 63 63 63 63 63 64 65 65 65 65 65 65 65 64 64 64 63 62 60 59 58 57 57 57 58 55 55 55 55 54 54 53 52 52 51 51 51 51 50 50 50 50 49 48 46 46 45 46 46 46 46 47 45 47 48 50
64 64 64 65 64 64 63 63 63 63 63 63 64 65 65 66 65 65 65 65 65 63 62 61 60 59 58 58 57 57 56 56 55 55 55 54 54 53 52 52 51 51 51 51 50 51 51 51 51 49 48 47 46 46 43 44 45 45 47 48 46 47 49
64 64 64 65 64 63 62 63 63 62 63 63 64 65 66 65 65 66 65 65 64 62 60 60 59 59 58 57 56 56 57 56 56 56 55 54 54 53 53 52 52 51 51 51 51 52 52 51 51 51 49 48 48 46 43 44 45 46 46 47 47 46 48
64 65 64 65 64 63 63 62 62 62 63 63 64 65 66 65 64 65 65 64 62 61 60 59 59 58 57 56 56 57 56 56 56 55 55 54 54 54 53 52 51 51 51 51 50 51 50 50 50 49 48 48 48 47 46 44 44 46 47 45 46 47 48
65 65 64 64 64 63 63 62 62 62 63 63 65 65 65 65 64 64 63 63 62 60 58 58 58 57 57 57 56 56 56 56 55 54 54 54 55 54 53 52 51 52 52 52 51 51 50 50 49 49 48 48 47 46 46 43 44 45 47 46 46 47 47
64 64 64 64 64 63 63 63 63 62 63 63 65 65 65 64 64 64 63 62 61 59 58 58 57 57 57 56 55 55 56 55 54 54 55 54 54 53 52 51 51 50 52 52 50 50 51 50 50 50 48 47 47 46 45 43 44 45 46 47 47 47 47
64 63 63 63 63 63 63 63 62 62 62 63 65 65 65 64 63 63 62 62 61 60 59 57 57 56 56 55 55 56 56 54 54 54 54 54 53 53 51 50 50 49 49 49 49 49 50 49 48 48 47 47 45 45 46 45 44 43 43 46 45 45 45
63 63 63 63 63 63 62 62 62 62 62 63 65 65 65 64 63 62 62 62 61 60 60 60 59 58 56 55 55 56 55 54 54 54 53 53 52 52 51 51 51 50 49 48 48 48 49 49 48 48 47 47 46 45 46 45 44 44 44 45 45 45 44
63 63 63 63 62 62 62 62 62 62 63 64 64 65 64 63 63 62 62 61 60 60 59 59 58 57 56 55 56 55 54 54 54 53 52 52 52 51 51 49 50 50 49 48 47 47 48 47 48 48 47 47 46 46 46 46 45 44 44 43 43 44 45
63 63 62 62 62 62 62 62 62 63 63 64 64 64 63 63 62 62 61 60 60 59 59 58 58 57 56 56 55 55 54 54 54 53 53 52 53 48 48 47 48 48 48 47 46 46 46 46 47 48 47 48 46 47 48 47 47 47 45 43 43 44 44
64 63 62 62 62 62 62 62 63 63 64 63 63 63 62 62 62 62 61 60 60 59 59 59 57 56 55 55 55 54 54 54 53 51 48 46 46 46 45 45 46 47 47 46 45 45 46 46 47 47 47 47 47 47 48 46 48 46 45 43 43 43 44
64 63 62 63 62 62 62 62 63 63 63 63 63 62 62 62 62 61 60 60 59 59 58 58 57 55 55 54 54 54 52 51 48 46 45 44 44 44 44 45 45 45 45 45 45 45 46 46 47 46 47 46 47 46 46 45 46 44 44 43 43 42 42
64 63 63 63 63 63 62 62 63 63 62 62 62 61 62 61 61 61 61 60 59 59 58 58 57 57 54 54 53 52 51 47 44 43 43 42 42 42 43 43 44 44 44 44 45 45 46 46 45 45 44 46 46 45 45 45 45 44 43 43 41 40 40
64 63 63 63 63 63 63 63 63 63 62 62 62 62 61 62 61 61 60 60 59 59 58 57 57 56 54 53 52 51 47 44 43 41 39 39 40 41 42 44 45 46 49 50 49 49 49 48 45 45 44 45 46 45 44 44 44 43 42 42 41 41 40
63 63 63 63 63 63 63 62 62 62 62 62 61 61 62 62 61 60 59 59 59 59 58 57 56 53 53 53 52 50 46 43 41 39 38 38 39 42 45 47 51 50 50 50 48 45 45 46 47 46 44 45 45 45 44 43 43 42 42 41 39 40 40
63 63 63 63 63 63 63 62 62 61 61 61 61 61 61 61 60 60 59 58 58 58 58 57 50 47 47 49 52 48 44 42 40 37 36 36 39 44 46 46 46 49 48 47 45 43 42 43 43 43 45 47 47 45 44 43 42 41 41 40 39 39 37
63 63 63 63 63 63 62 62 62 61 61 61 61 61 61 60 59 59 58 58 58 58 57 53 46 45 45 46 49 48 44 42 40 37 36 38 41 43 45 45 45 45 43 44 43 43 44 42 41 41 41 41 41 42 44 44 43 41 40 40 39 38 37
62 62 62 62 62 62 62 62 61 61 61 60 60 60 60 60 58 58 57 57 57 57 56 48 44 44 44 45 46 47 45 42 39 38 38 40 41 43 44 45 44 44 47 48 47 42 42 43 44 44 44 43 42 42 40 41 43 44 41 40 39 38 38
62 62 62 62 62 61 61 61 61 61 61 60 59 59 59 59 58 57 57 56 56 56 54 47 44 44 44 44 44 46 46 44 41 39 40 41 42 43 44 44 44 45 46 46 43 43 43 42 42 43 42 42 44 45 43 41 42 42 43 41 40 39 39
62 62 62 61 61 61 61 61 61 61 61 60 60 59 59 58 57 57 56 55 55 54 52 43 43 43 43 43 44 46 48 47 43 41 41 42 42 43 44 44 44 46 46 44 44 43 43 43 43 43 42 41 40 40 41 42 42 43 43 41 40 40 40
61 61 61 61 61 61 61 61 60 60 60 60 60 59 58 57 56 56 55 54 52 52 49 41 42 42 42 43 44 51 50 48 45 43 43 43 43 44 45 45 45 46 46 44 47 42 44 44 43 43 43 42 40 39 40 47 42 43 43 42 42 42 42
61 61 61 60 60 60 60 60 60 60 59 59 59 58 58 57 55 54 53 52 52 51 48 42 41 42 42 42 46 50 50 49 48 46 46 46 46 47 47 47 46 46 44 43 44 41 41 44 44 44 43 41 41 40 39 40 40 39 40 40 40 41 40
61 61 61 60 59 59 60 60 59 59 59 58 58 58 56 55 54 53 52 51 51 49 48 44 41 42 42 44 48 50 50 49 49 48 48 47 47 46 47 49 47 42 41 40 39 38 39 44 44 44 43 40 40 39 39 41 43 42 39 39 38 38 38
61 61 60 60 59 59 59 59 59 59 59 58 57 57 55 55 54 52 51 50 51 49 48 46 41 41 42 44 48 50 49 48 48 48 47 45 45 45 46 47 45 42 40 40 36 37 38 44 45 45 43 41 40 39 40 39 42 41 41 41 40 39 39
61 61 60 59 60 59 59 58 58 58 58 58 57 56 54 54 53 52 51 50 50 49 48 47 44 41 42 44 45 49 48 47 46 44 44 43 43 42 42 41 42 38 37 36 36 38 39 41 45 45 43 41 40 40 39 39 42 40 41 44 41 41 41
60 60 60 60 59 58 59 59 58 58 57 57 56 55 54 54 54 52 51 51 50 49 49 47 45 40 42 43 43 45 47 46 44 43 43 42 41 39 39 38 38 37 35 36 37 38 38 39 41 44 43 42 41 39 39 38 42 44 39 40 42 42 42
60 60 59 59 58 58 58 58 58 58 57 56 55 54 54 53 53 52 51 51 50 49 50 48 45 41 41 41 41 43 46 46 45 42 41 39 40 38 37 37 36 37 35 36 36 37 38 38 38 40 37 36 36 36 39 40 38 39 40 39 38 39 40
59 59 59 58 58 57 58 57 57 56 56 55 55 54 53 53 53 52 51 50 50 50 48 46 43 43 39 39 39 40 40 42 41 42 39 39 37 37 37 37 38 38 35 36 36 37 37 37 38 34 35 35 35 35 37 38 38 39 38 37 37 37 36
59 58 58 58 57 57 56 56 56 56 56 55 54 54 53 53 53 52 51 50 49 47 46 45 41 40 40 37 37 37 37 39 41 42 40 39 37 37 37 37 38 36 35 36 36 36 37 37 35 35 35 35 35 37 40 39 38 39 38 36 35 34 34